Regional Weather Roundup
Issued by NWS Wakefield, VA

Home | Current Version | Previous Version | Text Only | Print | Product List | Glossary On
Versions: 1 2 3 4 5 6 7 8 9 10 11 12 13 14 15 16 17 18 19 20 21 22 23 24 25 26 27 28 29 30 31 32 33 34 35 36 37 38 39 40 41 42 43 44 45 46 47 48 49 50
629
ASUS41 KAKQ 201815
RWRAKQ

REGIONAL WEATHER ROUNDUP
NATIONAL WEATHER SERVICE WAKEFIELD VA
100 PM EST FRI JAN 20 2017

Note: "fair" indicates few or no clouds below 12,000 feet with no
significant weather and/or obstructions to visibility. * = Denotes
station may not report precipitation (e.g., rain,snow,etc.),
thunder or fog.

VAZ042-051-052>054-056-201900-
NORTHERN VIRGINIA

CITY           SKY/WX    TMP DP  RH WIND       PRES   REMARKS
WASH NATIONAL  CLOUDY    49  42  77 S8        29.91F
DULLES         LGT RAIN  45  42  89 S5        29.88F
FORT BELVOIR   LGT RAIN  46  41  81 S6        29.89F
QUANTICO       LGT RAIN  43  42  97 S5        29.91F
FREDERICKSBRG* CLOUDY    47  47 100 S6        29.90F
STAFFORD*      CLOUDY    45  45 100 S5        29.93F FOG
WARRENTON      CLOUDY    49  44  84 S6        29.87F
CULPEPER*      CLOUDY    49  46  90 S6        29.89F
MANASSAS*      LGT RAIN N/A N/A N/A S6        29.89F
LEESBURG*      CLOUDY    45  45 100 MISG      29.88F
WINCHESTER     CLOUDY    43  41  93 SE5       29.83F
FRONT ROYAL*   CLOUDY    48  45  87 CALM      29.81F
LURAY*         CLOUDY    54  46  76 SW10G20   29.81F
$$

VAZ048-049-060>072-079>083-201900-
CENTRAL AND SOUTH CENTRAL VIRGINIA

CITY           SKY/WX    TMP DP  RH WIND       PRES   REMARKS
RICHMOND       LGT RAIN  46  45  96 SW5       29.91F FOG
CHESTERFIELD*  CLOUDY    46  30  53 CALM      29.92F
PETERSBURG*    LGT RAIN  46  45  93 CALM      29.92F
HANOVER        LGT RAIN  46  43  89 SW3       29.93F FOG
TAPPAHANNOCK*  RAIN      48  47  97 S3        29.92R
QUINTON*       CLOUDY    46  46 100 CALM      29.91F
CHARLOTTSVILLE LGT RAIN  47  44  90 S5        29.86F
GORDONSVILLE*  CLOUDY    46  45  97 S5        29.87F
ORANGE*          N/A     46  46 100 CALM      29.89F
LOUISA*        CLOUDY    50  48  93 S3        29.88F FOG
BUMPASS*       CLOUDY    46  46 100 SW5       29.91S
FARMVILLE*     LGT RAIN  49  49  99 E3        29.86F
CREWE*         CLOUDY    47  47 100 CALM      29.89F
FORT PICKETT*  CLOUDY   N/A N/A N/A N5        29.89F
CHASE CITY*    CLOUDY    47  46  94 CALM      29.88F
CLARKSVILLE*   CLOUDY    46  46 100 CALM      29.88F
SOUTH HILL*    CLOUDY    47  47 100 CALM      29.93F
LAWRENCEVILLE* CLOUDY    47  46  97 CALM      29.87F
EMPORIA*       CLOUDY    45  45 100 CALM      29.90F FOG
$$

VAZ088>098-201900-
SOUTHEAST VIRGINIA

CITY           SKY/WX    TMP DP  RH WIND       PRES   REMARKS
NORFOLK        HVY RAIN  51  46  83 S3        29.91F
VIRGINIA BEACH LGT RAIN  49  44  83 E5        29.92F
NORFOLK NAVAL  NOT AVBL
WEST POINT*    CLOUDY    48  45  89 CALM      29.92S
SALUDA*        CLOUDY    46  45  99 CALM      29.91F
NEWPORT NEWS   LGT RAIN  50  47  89 SE3       29.91F FOG
LANGLEY AFB    LGT RAIN  49  47  94 SE6       29.90F
FORT EUSTIS    LGT RAIN  49  44  83 SE3       29.88F
WILLIAMSBURG*  CLOUDY    50  46  87 SE5       29.91F
HR EXEC AP*    CLOUDY    48  45  87 E3        29.89F
FRANKLIN*      RAIN      47  46  94 CALM      29.90F
US460-WAKEFLD  LGT RAIN  48  46  93 CALM      29.91F FOG
$$

VAZ020-022-025-037-045-201900-
WEST CENTRAL AND SOUTHWEST VIRGINIA

CITY           SKY/WX    TMP DP  RH WIND       PRES   REMARKS
STAUNTON*      CLOUDY    51  46  85 SW5       29.85F
WAYNESBORO*    CLOUDY    49  45  86 NE3       29.84F
HOT SPRINGS VA FOG       46  46 100 W8        29.81F VSB 3/4
LYNCHBURG      LGT RAIN  48  46  93 S5        29.88F
DANVILLE       CLOUDY    48  48 100 E3        29.87F
SOUTH BOSTON*  CLOUDY    47  46  96 CALM      29.88F
MARTINSVILLE   CLOUDY    48  47  94 CALM      29.89F
ROANOKE        CLOUDY    48  45  89 CALM      29.88F
BLACKSBURG     CLOUDY    48  47  95 CALM      29.89S
DUBLIN*        CLOUDY    52  50  93 W3        29.86F
MARION*        CLOUDY    54  52  92 SW7       29.87F
HILLSVILLE*    CLOUDY    51  50  97 CALM      29.84F
RICHLANDS*     CLOUDY   N/A N/A N/A W14       29.84F
WISE*          CLOUDY    55  54  94 SW9       29.84F
ABINGDON*      CLOUDY    58  57  95 W9        29.85F
$$

MDZ021>025-VAZ099-100-201900-
SOUTHERN MARYLAND AND THE DELMARVA PENINSULA

CITY           SKY/WX    TMP DP  RH WIND       PRES   REMARKS
PATUXENT RIVER LGT RAIN  43  42  97 SE8       29.90F FOG
BAY BRIDGE APT LGT RAIN  45  41  87 SE10      29.91F FOG
LEONARDTOWN    CLOUDY    46  41  81 S3        29.93R
DOVER          NOT AVBL
GEORGETOWN     CLOUDY    46  43  89 CALM      29.94F FOG
EASTON         NOT AVBL
CAMBRIDGE      MOSUNNY   45  41  87 SE5       29.91F
SALISBURY      CLOUDY    47  41  80 SE3       29.93F
OCEAN CITY     CLOUDY    46  43  89 E3        29.94F
WALLOPS ISLAND CLOUDY    48  43  82 CALM      29.94F
ACCOMACK*      LGT RAIN  50  44  80 S6        29.94S
$$

NCZ012>017-030>032-201900-
NORTH CENTRAL AND EASTERN NORTH CAROLINA

CITY           SKY/WX    TMP DP  RH WIND       PRES   REMARKS
ROANOKE RAPIDS CLOUDY    46  46 100 CALM      29.89F FOG
RALEIGH        CLOUDY    54  52  93 VRB3      29.86F FOG
ELIZABETH CITY LGT RAIN  51  46  83 N3        29.91F
AHOSKIE*       HVY RAIN  47  47  97 CALM      29.90F
EDENTON*       CLOUDY    53  49  89 CALM      29.89F
CURRITUCK*     RAIN      52  45  76 NW5       29.94S
KILL DEVIL HLS NOT AVBL
MANTEO         CLOUDY    53  46  77 E6        29.88F
CAPE HATTERAS  PTSUNNY   65  54  67 SE6       29.87F HAZE
TARBORO*       NOT AVBL
GOLDSBORO      PTSUNNY   64  58  80 CALM      29.83F
WASHINGTON     CLOUDY    57  47  69 SE9         N/A
GREENVILLE     CLOUDY    55  54  94 SE3       29.89F
NEW BERN       CLOUDY    63  54  72 SE5       29.86F
WILMINGTON     CLOUDY    71  59  65 SW10      29.86F
$$

VAZ048-201900-
ELSEWHERE

CITY           SKY/WX    TMP DP  RH WIND       PRES   REMARKS
HARRISBURG PA  RAIN      40  39  97 SE7       29.89F FOG
BALTIMORE      LGT RAIN  43  41  93 SE5       29.91F FOG
ANNAPOLIS      LGT RAIN  42  39  89 SE7       29.91F FOG
ANDREWS AFB    CLOUDY    46  41  81 S7        29.89S
PHILADELPHIA   LGT RAIN  40  36  86 E3        29.95F
HENDERSON NC   DRIZZLE   47  46  94 CALM      29.88S
GREENSBORO     CLOUDY    51  51 100 CALM      29.86F FOG
ROCKY MOUNT    CLOUDY    53  52  96 NE3       29.87F
$$

VAZ100-201900-
MARINE

STATION/POSITION TIME  TEMP    WIND        PRES    WAVE   SWELL
                       AIR SEA DIR/SP/G            HT/PER HT/PER
                 (UTC) (F)     (DEG/KT/KT) (MB)    (FT/S) (FT/S)
CAPE MAY NJ      1748   42 41   90/  7/  9 1013.3F
LEWES DE         1748   44 42  100/  6/  8 1013.4F
OCEAN-CITY-INLET 1748   45 42  110/  4/  5 1014.1F
WACHAPREAGUE VA  1742   48 46   50/  1/  2 1013.9F
THOMAS POINT MD  1800   42 40  140/  7/  7   N/A
GOOSES REEF MD   1750   42     160/  8/  8 1013.4F
COVE POINT MD    1742   41     160/ 11/ 13 1013.2F
SOLOMONS ISLAND  1742   42 41   80/  8/  9   N/A
BISHOPS HEAD MD  1748   43 43  100/  5/  6 1013.2F
PINEY POINT MD   1748          160/  5/  5   N/A
POTOMAC MD       1750   42     140/ 12/ 12 1011.4F
CAMBRIDGE MD     1748   45 40  110/  4/  5 1012.4F
LEWISETTA VA     1742   46 44  130/  9/ 10 1011.6F
RAPPAHANNOCK LGT 1748          130/  6/  6 1013.5F
STINGRAY PT      1750   42     120/  4/  4 1013.3F
YORK RVR RNG VA  1742   44     150/  9/ 10 1012.5F
YORKTOWN VA      1742   46 43  100/  3/  3 1012.7F
JAMESTOWN VA     1750   47     100/  6/  8   N/A
DOMINION TERM VA 1742   48      CALM  /  3 1013.0F
KIPTOPEKE VA     1748      44  120/  5/  6   N/A
CHES BAY BRIDGE  1742   45 43  110/  5/  7 1013.2F
CAPE HENRY VA    1742   46     100/  4/  5   N/A
WILLOUBY STN VA  1742   45      90/  4/  5 1013.9F
S CRANEY ISL VA  1742   48     180/  3/  4 1013.0F
CAPE HENRY BUOY  1742      48                N/A     3/12   2/12
OFFSHORE WE BUOY 1751      49                N/A     4/13   3/13
64NM E OF VA BCH 1750   54 58   60/  6/  8 1012.7F   5/12   5/12
DUCK PIER NC     1742   49 45   90/  9/ 10 1011.7F
44100 DUCK FRF   1735      48                N/A     5/13   3/13
44056 DUCK FRF   1730      45                N/A     3/13   2/13
OREGON INLET NC  1742   50 49   50/  5/  7 1012.0F
HATTERAS NC      1742   61 54  120/  4/  6 1011.3F
DIAMOND SHLS NC  1750   69 76  180/ 14/ 17 1011.7F   5/12   5/12
CAPE LOOKOUT NC  1700   66     150/  7/  8 1011.8F
$$




USA.gov is the U.S. government's official web portal to all federal, state and local government web resources and services.